TimeEDT,TemperatureF,Dew PointF,Humidity,Sea Level PressureIn,VisibilityMPH,Wind Direction,Wind SpeedMPH,Gust SpeedMPH,PrecipitationIn,Events,Conditions,WindDirDegrees,DateUTC
12:53 AM,51.1,46.0,83,30.19,10.0,Calm,Calm,-,N/A,,Clear,0,2013-09-19 04:53:00
1:53 AM,48.9,45.0,86,30.19,10.0,Calm,Calm,-,N/A,,Clear,0,2013-09-19 05:53:00
2:53 AM,48.0,44.1,86,30.18,10.0,NNW,5.8,-,N/A,,Clear,330,2013-09-19 06:53:00
3:53 AM,46.9,43.0,86,30.17,10.0,NNW,5.8,-,N/A,,Clear,330,2013-09-19 07:53:00
4:53 AM,46.0,43.0,89,30.17,10.0,NW,6.9,-,N/A,,Clear,320,2013-09-19 08:53:00
5:53 AM,46.0,42.1,86,30.18,10.0,Calm,Calm,-,N/A,,Clear,0,2013-09-19 09:53:00
6:53 AM,45.0,43.0,93,30.18,6.0,Calm,Calm,-,N/A,,Clear,0,2013-09-19 10:53:00
7:53 AM,50.0,46.9,89,30.18,8.0,Calm,Calm,-,N/A,,Clear,0,2013-09-19 11:53:00
8:53 AM,55.9,51.1,84,30.18,10.0,SSW,3.5,-,N/A,,Clear,210,2013-09-19 12:53:00
9:53 AM,62.1,53.1,72,30.18,10.0,Variable,3.5,-,N/A,,Clear,0,2013-09-19 13:53:00
10:53 AM,66.0,53.1,63,30.17,10.0,Variable,6.9,-,N/A,,Clear,0,2013-09-19 14:53:00
11:53 AM,69.1,52.0,54,30.16,10.0,Variable,5.8,-,N/A,,Partly Cloudy,0,2013-09-19 15:53:00
12:53 PM,71.1,52.0,51,30.15,10.0,WSW,9.2,-,N/A,,Partly Cloudy,240,2013-09-19 16:53:00
1:53 PM,72.0,48.9,44,30.12,10.0,SW,5.8,-,N/A,,Clear,230,2013-09-19 17:53:00
2:53 PM,73.9,50.0,43,30.10,10.0,South,5.8,-,N/A,,Clear,180,2013-09-19 18:53:00
3:53 PM,73.9,48.0,40,30.08,10.0,SSW,8.1,-,N/A,,Clear,210,2013-09-19 19:53:00
4:53 PM,73.9,50.0,43,30.07,10.0,SW,8.1,-,N/A,,Clear,220,2013-09-19 20:53:00
5:53 PM,73.0,48.9,42,30.07,10.0,WSW,4.6,-,N/A,,Clear,240,2013-09-19 21:53:00
6:53 PM,70.0,51.1,51,30.07,10.0,SSW,3.5,-,N/A,,Clear,210,2013-09-19 22:53:00
7:53 PM,68.0,51.1,55,30.09,10.0,Calm,Calm,-,N/A,,Clear,0,2013-09-19 23:53:00
8:53 PM,63.0,51.1,65,30.09,10.0,Calm,Calm,-,N/A,,Clear,0,2013-09-20 00:53:00
9:53 PM,61.0,51.1,70,30.09,10.0,Calm,Calm,-,N/A,,Clear,0,2013-09-20 01:53:00
10:53 PM,57.9,51.1,78,30.08,10.0,Calm,Calm,-,N/A,,Clear,0,2013-09-20 02:53:00
11:53 PM,57.0,52.0,83,30.07,10.0,Calm,Calm,-,N/A,,Clear,0,2013-09-20 03:53:00